Temp_Advection
nan nan nan nan nan nan nan nan nan nan nan nan nan nan nan nan nan nan nan nan nan nan nan nan nan nan nan nan nan nan nan nan nan nan nan nan nan nan nan nan nan nan nan nan nan
nan 0 -0 -0 -0 -0 -0 -0 -0 -0 -0 -0 -0 -0 -0 -0 -1 -1 -0 -0 0 0 -0 -0 -0 0 -0 -0 -0 -0 -0 -0 -0 -0 -0 -0 0 0 0 0 0 -0 0 0 nan
nan -0 -0 -0 -0 -0 -0 -0 -0 -0 -0 -0 -0 -0 -0 -0 -1 -0 -0 -0 0 -0 -0 -0 -0 -0 -1 -0 -1 -0 -0 -0 -0 -0 -0 0 0 0 -0 -0 -1 -1 -1 -0 nan
nan -0 -0 -0 -0 -0 -0 -0 -0 -0 -0 -0 -0 -0 -0 -0 -1 -0 0 -0 0 0 -0 -0 -0 -0 -0 -0 -0 -0 -1 -0 -0 0 0 0 0 0 -0 -0 -0 -0 0 0 nan
nan -0 -0 -0 -0 -0 -0 -0 -0 -0 -0 -0 -0 -0 -0 -0 -2 -0 1 0 -1 -0 -0 0 -0 -1 -0 -0 0 -1 -0 -0 0 0 0 0 0 -0 -0 -0 -0 0 1 1 nan
nan -0 -0 0 -0 -0 -0 -0 -0 1 0 -0 -0 -0 -0 -0 -1 -1 -0 0 -0 -1 -1 -0 -0 0 -0 -0 -0 -0 0 0 0 1 0 0 0 -0 -0 0 1 1 2 1 nan
nan -0 -0 0 0 0 0 0 -0 1 1 0 0 0 -0 -1 -1 -0 0 0 0 -0 -1 -0 -0 0 0 -0 -1 -0 -0 0 -0 0 0 0 0 -0 -0 0 1 1 1 0 nan
nan 0 0 -0 0 0 -0 0 0 0 1 0 0 0 -0 -0 0 0 -0 0 -0 -0 -0 -0 -0 -0 -0 -0 0 0 -0 -0 -0 0 0 0 -0 -0 0 1 0 -0 0 0 nan
nan -0 0 -0 -0 -0 -0 -0 0 -0 0 0 0 0 -0 -0 -0 0 0 -0 0 0 0 0 0 -0 -1 0 0 -0 -0 -0 -0 0 -0 0 -0 0 0 0 0 0 0 0 nan
nan -0 -0 -0 0 -0 -0 -1 -1 -0 -1 -0 -0 -0 -0 -0 -0 -0 -0 -0 -0 -0 0 -0 -0 -0 -0 -0 -0 -0 -0 -0 0 0 0 0 0 -0 0 0 0 0 0 0 nan
nan 0 -0 0 0 0 -0 -1 -1 -0 -1 -0 0 -0 -1 -0 -1 -0 0 0 -0 0 -0 0 -0 -0 -1 -0 -0 0 -0 0 0 -0 0 0 -0 -0 1 0 -0 -0 0 0 nan
nan 0 0 0 0 -0 -0 -1 -0 -1 -0 -1 0 -0 -0 0 -0 -1 0 0 0 0 0 -0 -1 -1 -0 0 1 0 0 0 -0 0 0 0 0 0 -0 0 -0 -0 -0 0 nan
nan -0 -0 -0 -0 -0 -0 0 0 -0 -0 -1 -0 0 -0 0 -0 -0 0 -0 0 0 -0 -0 -1 0 0 0 0 0 -0 -0 -0 0 0 0 -0 0 -0 0 0 -0 -0 -1 nan
nan -0 -0 -0 -0 -0 -0 0 0 0 -0 -1 -0 0 0 1 -0 -0 0 0 0 -0 0 -0 -0 -0 1 -0 -0 -0 -0 -0 0 0 0 0 0 -0 -0 0 -0 -0 0 -1 nan
nan -0 -0 -0 -0 0 0 0 0 -0 0 -1 -0 -0 -0 -0 0 0 -0 0 0 -0 -0 -0 -0 -0 -0 -1 -0 -0 0 0 0 1 0 -0 -0 0 1 -0 -1 -0 0 -0 nan
nan 0 0 -0 -0 0 0 0 -0 -1 -0 -1 -0 -0 -1 -0 0 0 -0 0 -0 0 0 -0 -0 -0 -0 -0 -0 0 -0 0 0 0 -0 0 0 0 -0 -1 -1 0 -0 -0 nan
nan 0 0 0 0 0 0 -0 -1 1 0 -0 -0 -0 -0 -0 -0 0 0 -0 -0 -0 -0 0 -0 -0 0 0 -0 0 0 0 0 -0 0 0 -0 -1 -0 0 0 -0 -0 -1 nan
nan 0 0 0 0 0 1 -1 0 -0 -0 -0 0 -0 -0 0 -0 -0 0 0 -0 -0 0 0 -0 0 0 -0 -0 0 0 0 0 0 0 0 -0 0 0 0 1 1 1 0 nan
nan -0 -0 0 0 0 -0 -1 -0 -0 -0 -0 -0 -0 -0 -0 -0 -0 -0 -0 -0 -0 -0 -0 -0 -0 0 -0 -0 -0 0 0 -0 0 0 -0 -0 -0 0 0 0 1 1 1 nan
nan -0 0 0 -0 0 -1 -0 -0 -0 -0 0 -0 0 -0 -0 -0 -0 -0 0 -0 0 -0 0 -0 -0 0 0 -0 0 0 0 0 0 -0 0 -0 -0 -0 0 0 0 0 0 nan
nan -0 -0 0 -0 -1 -0 -0 -1 -0 0 0 -0 -0 0 -0 -0 -0 -0 0 0 -0 -0 -0 -0 0 0 0 -0 -0 -0 0 -0 0 0 0 -0 0 0 0 0 0 0 -0 nan
nan -0 -0 -0 -2 -0 0 -0 -0 -0 -0 0 0 0 0 0 0 -0 -0 -0 0 -0 -0 0 -0 -0 0 -0 0 -0 0 0 0 -0 -0 -0 -0 -0 -0 -0 0 -0 0 0 nan
nan -0 -0 -1 -1 0 -0 -0 -0 -0 -0 -0 -0 0 -0 0 0 -0 -0 -0 -0 0 -0 -0 -0 0 0 0 0 0 0 0 0 0 0 0 0 0 0 0 0 0 0 0 nan
nan -0 -0 -1 -0 0 0 -0 -0 -0 0 -0 -0 0 -0 -0 -0 -0 -0 -0 -1 -0 -0 -0 0 -0 0 0 -0 0 0 0 0 0 -0 0 0 0 0 -0 -0 0 0 0 nan
nan 0 -0 -0 -0 -0 -0 -0 -0 -0 -0 -0 -0 -0 -0 -0 -0 -0 -0 -1 -1 -0 -0 -0 -0 -0 0 -0 -0 -0 0 0 -0 0 0 0 0 0 -0 -0 -0 -0 0 0 nan
nan 0 0 0 0 -0 -0 -0 -0 -0 0 -0 -0 -0 -0 -0 -0 0 -0 -0 -0 -0 -0 -0 -0 -0 0 0 -0 -0 -0 0 0 0 -0 0 0 -0 -0 -0 -0 0 -0 -0 nan
nan nan nan nan nan nan nan nan nan nan nan nan nan nan nan nan nan nan nan nan nan nan nan nan nan nan nan nan nan nan nan nan nan nan nan nan nan nan nan nan nan nan nan nan nan
Wind_Speed
18 19 19 20 21 21 20 22 23 22 22 22 23 23 22 21 23 24 30 33 22 19 8 7 13 14 17 16 20 13 4 13 11 10 3 6 8 9 6 9 9 13 4 9 31
21 21 19 22 21 19 21 24 25 24 23 24 23 21 21 21 25 29 18 15 20 18 19 17 13 11 14 18 12 5 9 12 6 5 3 4 7 11 7 6 5 13 10 20 33
22 21 22 23 21 22 25 25 25 23 22 22 21 21 21 20 21 6 7 14 4 16 19 19 15 14 18 15 21 15 11 6 8 12 8 4 4 6 8 4 11 22 22 29 34
21 24 22 22 22 24 25 24 23 24 24 22 21 20 18 18 8 17 4 9 1 2 10 21 23 12 9 16 19 10 20 14 9 4 5 2 1 0 7 6 10 14 26 36 40
23 21 23 22 23 24 25 24 25 25 25 24 23 21 19 16 20 16 22 23 17 12 5 16 24 20 15 9 18 18 13 27 16 21 7 1 2 3 7 5 10 9 25 35 36
22 22 24 24 25 25 27 27 28 28 27 25 22 20 20 22 25 18 12 14 16 17 13 6 14 20 10 11 11 8 20 18 23 17 14 7 3 3 2 3 8 13 28 33 37
23 23 22 26 26 27 28 29 29 28 26 23 17 16 19 26 22 29 27 27 22 21 18 13 8 9 6 4 27 10 12 14 18 17 7 9 9 6 8 5 10 17 20 30 31
23 24 25 28 28 29 30 31 29 25 22 11 11 10 10 16 10 14 11 12 9 12 14 9 12 9 5 9 1 12 5 15 11 14 8 16 19 12 8 12 13 18 22 27 29
25 25 26 29 29 29 31 29 25 19 9 11 14 5 9 8 7 4 5 4 8 3 11 4 5 4 11 7 6 7 12 16 7 19 11 10 6 9 10 13 13 19 22 24 28
25 25 25 26 26 27 26 27 24 10 15 4 6 4 6 6 9 11 8 8 4 5 7 12 7 5 8 13 16 12 16 8 18 8 12 16 11 8 17 13 15 19 21 24 30
24 24 24 25 24 21 25 23 20 7 30 7 19 14 22 10 15 15 15 14 8 3 2 9 7 11 11 25 15 14 3 13 5 7 9 16 14 8 12 22 11 16 22 25 29
25 25 23 23 21 15 16 15 16 15 11 21 9 12 14 12 10 17 8 9 10 10 4 4 18 11 10 10 19 8 9 8 3 10 8 8 15 15 11 18 25 21 21 24 26
24 26 23 22 15 16 12 18 19 14 4 13 9 10 5 8 12 16 4 7 4 6 9 9 7 14 13 10 12 13 16 9 8 6 6 8 15 9 14 11 22 20 24 26 35
22 24 23 21 7 16 9 22 18 6 3 6 5 3 5 20 5 4 7 6 3 9 5 6 11 12 14 11 13 13 10 12 8 8 6 10 5 15 16 15 11 27 28 31 35
23 22 19 17 14 14 21 21 14 2 5 10 6 6 28 5 12 1 4 7 6 6 5 7 9 13 17 16 12 5 10 12 11 11 5 7 5 5 15 17 20 17 26 33 37
22 20 18 15 13 19 23 20 2 6 4 7 6 12 11 5 3 5 4 4 1 5 5 5 3 4 11 5 15 3 3 5 8 5 9 7 14 5 10 28 19 19 26 33 34
22 18 16 13 16 23 20 6 5 6 5 9 8 11 12 6 9 2 2 4 4 3 2 3 5 3 9 9 2 12 9 4 7 5 9 5 9 13 13 14 21 19 26 34 35
23 20 9 12 18 17 15 5 7 4 5 5 6 14 4 7 7 9 6 1 6 4 2 5 3 12 7 6 6 16 15 5 6 7 2 4 6 6 5 9 14 22 30 37 41
25 13 5 14 15 13 4 5 6 3 4 8 14 4 4 2 4 6 3 3 4 9 6 5 5 4 12 5 9 9 11 3 3 2 3 3 4 7 4 3 5 9 16 27 36
22 7 11 17 12 8 5 2 2 3 5 3 3 3 5 9 8 9 5 3 5 6 6 2 3 5 6 8 3 3 7 4 3 3 1 2 4 2 1 5 5 7 11 22 30
15 4 11 18 7 5 3 4 4 7 7 3 3 4 5 7 5 4 4 7 8 9 7 2 4 1 11 8 13 5 3 3 4 2 4 4 3 4 2 1 4 4 10 15 22
10 3 13 13 6 3 1 3 4 4 4 3 3 3 3 10 4 3 4 5 17 13 6 5 2 2 8 4 8 4 8 2 3 4 1 0 1 1 3 4 3 4 7 12 16
14 5 8 10 3 3 6 4 2 3 4 4 3 3 5 5 5 4 4 9 15 12 9 2 2 3 6 2 2 4 3 4 5 2 2 1 1 3 2 2 2 2 3 6 12
9 3 5 8 5 3 5 5 6 6 3 6 4 4 8 4 4 7 7 7 32 13 26 4 2 1 3 6 5 6 8 5 4 2 3 3 5 3 3 4 3 5 3 4 10
8 2 3 4 3 3 2 3 4 6 5 7 3 4 6 5 7 2 4 15 12 7 15 5 3 4 3 2 4 6 14 12 9 4 4 8 5 2 2 2 2 6 7 9 11
8 6 5 4 5 4 4 3 2 4 2 5 2 13 8 5 5 15 12 7 7 9 11 7 5 5 7 6 10 6 5 7 4 5 5 8 2 1 2 3 8 11 10 10 10
11 8 4 5 2 2 2 3 4 2 5 11 8 10 7 7 15 28 26 21 18 11 5 5 4 4 3 4 6 5 1 1 3 5 4 4 5 4 3 5 5 13 11 10 9
Wind_Direction
352 347 335 328 325 323 321 323 317 313 314 313 314 311 309 307 300 293 276 264 263 257 232 257 232 214 219 235 213 188 204 223 216 197 219 162 160 216 191 171 175 189 197 191 169
346 341 334 330 333 332 325 325 322 316 311 310 310 308 309 310 304 299 320 283 253 254 254 251 251 217 212 218 214 193 214 217 165 200 221 173 183 175 158 146 202 183 174 169 169
336 334 330 323 329 325 322 320 320 319 317 315 310 305 307 312 316 216 135 55 128 239 239 245 245 232 222 213 221 199 224 183 185 199 232 190 164 183 140 180 209 193 180 173 172
330 331 331 329 330 327 327 323 322 320 316 312 306 304 302 296 278 171 234 349 232 161 256 229 223 211 220 215 212 237 227 228 182 194 195 181 174 216 197 168 203 224 197 178 177
339 335 333 329 327 326 325 323 320 315 313 310 304 300 296 272 253 237 279 308 309 303 323 211 202 207 210 220 222 232 240 222 220 209 160 221 239 232 248 216 233 228 196 183 181
337 337 334 332 330 327 327 326 320 315 313 309 304 299 284 276 281 283 298 303 306 308 297 304 208 210 241 241 220 212 223 229 218 203 209 186 224 299 219 190 199 198 190 182 183
336 331 329 326 332 330 325 322 318 323 316 311 308 284 272 258 271 287 293 294 296 293 282 270 246 209 223 245 236 260 253 229 233 220 203 193 265 214 231 173 164 174 181 180 179
337 340 337 333 329 328 326 325 328 326 320 319 323 291 260 300 313 283 302 306 301 275 262 280 262 261 235 208 226 209 256 236 225 205 189 176 240 209 222 185 170 179 179 183 182
333 330 328 328 331 332 330 334 338 326 327 309 319 272 276 312 327 326 307 337 349 0 220 182 199 216 207 201 198 196 215 209 222 201 173 191 228 215 187 197 181 184 181 179 179
333 334 335 331 332 330 337 343 349 352 331 49 41 326 261 329 310 289 283 300 336 351 165 192 184 227 242 202 203 194 206 216 207 200 191 201 217 259 205 199 197 185 184 184 190
339 339 336 335 335 340 346 6 13 342 335 278 299 279 279 307 304 320 289 256 253 266 246 190 211 204 219 198 213 203 198 212 201 181 168 209 208 211 200 205 193 197 185 188 196
345 345 339 339 338 353 359 33 8 327 312 310 309 274 290 302 300 323 305 203 205 216 189 259 227 227 228 213 212 199 209 209 188 193 194 195 214 212 189 204 208 202 201 191 186
340 341 340 342 341 354 8 1 343 339 283 298 311 292 315 303 302 305 197 197 190 211 214 213 255 196 234 250 190 198 218 210 209 166 169 191 222 210 210 203 198 222 213 199 202
338 335 340 345 352 347 350 342 338 352 50 282 333 341 342 315 272 269 260 215 205 220 193 259 245 245 210 235 207 203 203 216 225 203 230 204 227 205 208 206 198 195 206 212 211
335 335 339 346 340 345 336 338 336 102 41 319 305 320 325 261 288 211 308 222 215 191 152 226 219 222 233 214 192 219 174 210 221 238 231 235 233 200 195 208 212 204 201 206 210
340 338 337 336 337 335 334 335 341 43 296 329 324 327 343 298 259 314 346 192 170 206 244 249 289 238 206 219 219 173 281 215 212 219 234 200 211 193 189 209 208 205 204 204 206
343 341 334 334 334 334 336 341 32 86 349 323 332 329 326 288 314 259 281 224 179 80 220 165 244 287 158 183 275 192 147 226 201 220 230 284 207 236 216 201 206 198 199 203 210
341 334 336 347 338 334 337 50 56 253 281 298 301 309 292 337 323 322 301 245 221 209 285 181 262 176 197 192 161 192 186 177 180 190 172 138 220 221 206 184 200 198 198 203 205
342 343 1 347 344 342 335 52 203 250 308 313 312 317 311 330 339 321 279 255 247 187 212 179 248 148 174 173 144 157 203 198 111 61 151 191 286 277 209 174 185 181 190 192 200
344 346 0 352 345 341 72 266 231 225 312 279 305 13 320 332 345 332 310 337 313 247 218 225 276 202 175 132 98 117 143 138 194 166 192 352 288 251 104 195 199 187 194 193 201
345 331 355 348 355 45 106 226 281 290 308 255 286 286 268 325 284 298 291 305 344 324 220 247 242 186 152 198 171 145 210 139 97 192 164 146 245 224 236 240 193 167 197 197 195
349 6 356 0 40 25 69 242 315 296 322 297 258 264 310 314 288 288 298 289 4 321 297 214 257 223 162 332 148 124 150 165 147 145 79 305 275 26 320 266 242 236 197 194 197
336 309 2 15 69 347 311 305 283 315 317 321 298 350 1 281 312 259 307 296 331 332 341 306 218 117 128 42 137 150 138 119 100 126 7 160 164 25 26 39 67 99 140 181 187
340 359 7 52 78 14 358 326 324 319 286 330 282 325 342 291 251 294 307 313 322 318 342 331 30 81 201 199 121 119 136 125 96 101 192 360 120 9 18 58 38 62 80 125 165
358 345 350 325 353 342 332 295 317 343 330 324 316 16 348 288 301 285 314 328 321 359 341 9 353 6 11 142 111 134 154 159 194 157 151 168 131 191 116 61 58 74 87 112 139
7 353 330 295 320 351 353 282 309 340 286 304 291 318 309 269 276 300 326 325 280 328 333 344 342 2 26 25 124 118 130 120 121 110 47 120 99 107 67 62 77 76 95 105 129
355 334 311 309 350 52 243 258 279 332 282 253 289 312 298 283 303 286 275 267 263 291 310 301 342 5 17 356 82 93 47 182 128 59 116 135 193 137 70 78 48 75 75 96 123
Height
1509 1507 1504 1501 1499 1497 1493 1491 1487 1483 1479 1476 1474 1471 1469 1466 1463 1460 1455 1456 1460 1462 1465 1464 1466 1468 1470 1471 1470 1471 1473 1466 1469 1473 1470 1467 1474 1474 1473 1475 1477 1478 1479 1480 1484
1508 1505 1503 1500 1495 1490 1487 1484 1483 1479 1476 1473 1471 1468 1466 1463 1458 1454 1451 1448 1452 1458 1460 1461 1462 1465 1465 1466 1466 1463 1464 1460 1465 1468 1467 1466 1467 1469 1470 1473 1475 1476 1478 1480 1484
1507 1503 1500 1495 1492 1489 1485 1482 1477 1475 1472 1469 1467 1465 1463 1460 1456 1447 1446 1445 1447 1454 1456 1458 1460 1462 1461 1459 1460 1457 1454 1460 1461 1465 1466 1464 1466 1467 1466 1471 1470 1469 1473 1478 1484
1503 1499 1494 1492 1490 1487 1483 1479 1475 1470 1468 1465 1462 1461 1459 1459 1457 1444 1441 1444 1445 1447 1449 1452 1455 1457 1454 1453 1453 1457 1455 1456 1460 1462 1464 1464 1465 1465 1464 1461 1466 1469 1471 1473 1479
1499 1496 1492 1489 1486 1482 1477 1473 1469 1465 1462 1460 1457 1456 1455 1452 1447 1443 1442 1443 1444 1444 1446 1446 1449 1452 1450 1448 1453 1451 1450 1454 1457 1460 1461 1463 1463 1463 1463 1460 1463 1466 1469 1474 1480
1497 1494 1491 1487 1482 1479 1475 1469 1465 1460 1455 1453 1452 1452 1451 1445 1441 1440 1439 1441 1442 1442 1442 1442 1444 1447 1448 1448 1449 1445 1450 1451 1454 1455 1459 1462 1462 1463 1460 1458 1460 1464 1465 1470 1476
1495 1491 1488 1483 1479 1475 1470 1465 1459 1454 1449 1447 1445 1445 1445 1440 1437 1438 1437 1436 1437 1437 1437 1440 1441 1444 1443 1444 1444 1445 1449 1448 1449 1450 1456 1461 1461 1460 1459 1458 1460 1464 1469 1471 1476
1494 1489 1484 1480 1476 1472 1467 1461 1455 1449 1445 1442 1441 1441 1438 1435 1434 1433 1434 1432 1432 1432 1435 1438 1438 1439 1441 1439 1439 1443 1449 1451 1442 1447 1452 1457 1450 1455 1457 1458 1460 1463 1466 1471 1475
1491 1487 1483 1480 1475 1470 1464 1458 1452 1446 1443 1440 1439 1438 1436 1434 1433 1432 1432 1433 1432 1431 1433 1438 1439 1438 1437 1434 1439 1439 1437 1441 1441 1439 1446 1453 1449 1450 1453 1458 1460 1462 1465 1469 1473
1490 1484 1479 1475 1470 1464 1459 1453 1449 1445 1444 1437 1437 1440 1434 1434 1432 1431 1432 1432 1433 1432 1433 1435 1436 1433 1428 1427 1426 1428 1436 1437 1436 1440 1441 1447 1449 1449 1451 1456 1459 1461 1464 1467 1469
1487 1483 1479 1473 1467 1462 1456 1449 1448 1446 1443 1444 1440 1439 1432 1431 1430 1427 1426 1429 1430 1431 1431 1430 1431 1421 1424 1418 1419 1421 1429 1432 1434 1438 1438 1442 1449 1449 1451 1454 1458 1462 1461 1463 1467
1486 1480 1474 1470 1465 1461 1458 1455 1458 1458 1446 1439 1436 1434 1431 1430 1427 1424 1425 1426 1427 1427 1426 1429 1419 1420 1423 1421 1423 1425 1428 1432 1433 1433 1439 1442 1443 1445 1449 1448 1452 1455 1457 1460 1465
1483 1477 1471 1467 1465 1463 1459 1459 1456 1454 1452 1438 1435 1433 1432 1430 1426 1420 1422 1422 1423 1426 1425 1423 1415 1417 1420 1421 1420 1423 1427 1429 1429 1432 1439 1444 1445 1445 1442 1444 1445 1449 1454 1458 1458
1478 1475 1472 1467 1466 1462 1460 1459 1455 1452 1461 1443 1435 1434 1432 1428 1424 1419 1418 1421 1421 1421 1424 1427 1418 1418 1417 1422 1415 1419 1423 1429 1429 1433 1438 1435 1437 1436 1435 1438 1443 1444 1450 1454 1455
1479 1474 1471 1467 1465 1463 1462 1457 1453 1452 1483 1441 1437 1434 1431 1428 1422 1418 1417 1417 1418 1419 1421 1420 1416 1414 1418 1414 1418 1420 1421 1426 1428 1433 1436 1436 1434 1421 1428 1433 1431 1435 1439 1443 1448
1478 1475 1471 1469 1466 1463 1459 1455 1454 1469 1489 1446 1439 1436 1431 1423 1420 1417 1416 1416 1416 1417 1417 1415 1414 1412 1407 1414 1414 1418 1422 1425 1428 1438 1430 1426 1428 1425 1423 1409 1418 1428 1432 1436 1443
1477 1474 1469 1467 1464 1461 1456 1453 1471 1481 1456 1449 1443 1438 1433 1427 1418 1417 1416 1412 1414 1427 1429 1413 1412 1409 1406 1415 1417 1419 1427 1430 1433 1426 1417 1428 1435 1415 1407 1406 1409 1416 1424 1430 1438
1476 1472 1469 1466 1463 1459 1456 1457 1487 1470 1461 1452 1447 1439 1434 1424 1422 1419 1413 1410 1410 1411 1411 1410 1418 1406 1404 1406 1409 1413 1413 1418 1415 1415 1419 1431 1417 1405 1404 1404 1407 1410 1415 1423 1429
1474 1470 1468 1464 1460 1458 1458 1481 1482 1465 1461 1455 1446 1441 1436 1427 1429 1423 1414 1410 1404 1407 1408 1406 1398 1394 1396 1400 1402 1410 1413 1411 1421 1427 1418 1421 1417 1406 1403 1403 1407 1409 1413 1418 1423
1471 1467 1466 1463 1458 1456 1460 1472 1468 1462 1460 1458 1455 1448 1443 1432 1435 1425 1417 1410 1404 1402 1402 1399 1404 1388 1393 1397 1402 1405 1412 1416 1415 1411 1409 1424 1426 1404 1402 1403 1406 1408 1409 1412 1418
1471 1467 1465 1463 1459 1459 1477 1475 1464 1459 1460 1459 1456 1449 1448 1442 1434 1427 1419 1410 1409 1401 1399 1398 1395 1389 1389 1389 1392 1406 1410 1412 1416 1423 1405 1418 1409 1411 1405 1405 1405 1407 1408 1411 1414
1471 1470 1468 1462 1464 1473 1478 1470 1464 1459 1458 1456 1454 1451 1446 1442 1438 1434 1424 1415 1410 1407 1396 1393 1392 1386 1387 1393 1386 1395 1401 1406 1403 1412 1423 1413 1410 1408 1405 1406 1405 1405 1407 1408 1411
1476 1472 1469 1466 1481 1482 1472 1469 1465 1461 1459 1457 1454 1452 1450 1446 1441 1429 1423 1413 1409 1408 1399 1391 1389 1388 1395 1397 1394 1396 1401 1408 1409 1417 1414 1410 1408 1406 1406 1406 1404 1403 1404 1406 1407
1478 1478 1471 1470 1476 1476 1474 1473 1467 1462 1460 1459 1455 1452 1451 1446 1437 1430 1426 1416 1412 1407 1399 1392 1389 1390 1397 1387 1390 1404 1398 1405 1408 1412 1415 1408 1408 1408 1408 1406 1404 1403 1403 1403 1404
1483 1484 1482 1481 1476 1479 1475 1474 1470 1466 1461 1458 1455 1454 1458 1453 1440 1437 1430 1421 1409 1406 1403 1399 1392 1391 1388 1388 1387 1396 1399 1403 1406 1403 1400 1408 1408 1407 1407 1407 1407 1405 1405 1405 1406
1487 1487 1484 1480 1477 1480 1477 1479 1472 1468 1467 1462 1459 1454 1454 1450 1444 1433 1435 1431 1422 1410 1409 1401 1394 1393 1390 1385 1382 1392 1399 1400 1401 1404 1407 1409 1410 1406 1408 1409 1408 1406 1407 1408 1410
1488 1489 1488 1485 1479 1482 1480 1477 1472 1469 1464 1461 1459 1456 1450 1444 1440 1433 1431 1428 1424 1422 1415 1406 1404 1401 1395 1399 1390 1396 1401 1400 1402 1406 1410 1409 1407 1409 1411 1411 1409 1407 1407 1408 1411